Regional Weather Roundup
Issued by NWS

Home | Current Version | Previous Version | Graphics & Text | Print | Product List | Glossary On
Versions: 1 2 3 4 5 6 7 8 9 10 11 12 13 14 15 16 17 18 19 20 21 22 23 24 25 26 27 28 29 30 31 32 33 34 35 36 37 38 39 40 41 42 43 44 45 46 47 48 49 50
000
ASUS44 KMEG 040210
RWRTN
TENNESSEE HOURLY STATE WEATHER ROUNDUP
NATIONAL WEATHER SERVICE MEMPHIS TN
800 PM CST TUE MAR 03 2015

TNZ002-004-019-021-049-052-054-088>092-040300-
WEST TENNESSEE

CITY           SKY/WX    TMP DP  RH WIND       PRES   REMARKS
MEMPHIS INTL   CLOUDY    61  59  93 S9        29.90F
NWS MEMPHIS      N/A     60 N/A N/A MISG        N/A
JACKSON        CLOUDY    62  59  90 S13       29.90S
DYERSBURG      CLOUDY    59  46  63 CALM      29.89S
UNION CITY     CLOUDY    55  55 100 S6        29.86S
PARIS          CLOUDY    57  55  94 S7        29.87F
LEXINGTON      CLOUDY    61  61 100 SW8       29.90F
SAVANNAH       CLOUDY    63  63 100 S6        29.93S
$$

TNZ008-025-027-028-033-062-065-066-040300-
NORTH MIDDLE TENNESSEE

CITY           SKY/WX    TMP DP  RH WIND       PRES   REMARKS
NASHVILLE      LGT RAIN  61  61 100 S8        29.92F FOG
CLARKSVILLE    CLOUDY    61  59  93 S7        29.87F
SMYRNA         LGT RAIN  60  59  97 SW5       29.94F
COOKEVILLE     CLOUDY    61  57  88 S9        29.94F
CROSSVILLE     CLOUDY    55  53  93 S10       30.00S
$$

TNZ061-075-076-078-094-096-097-040300-
SOUTH MIDDLE TENNESSEE

CITY           SKY/WX    TMP DP  RH WIND       PRES   REMARKS
FAYETTEVILLE   CLOUDY    57  55  94 S8          N/A
TULLAHOMA      CLOUDY    57  57 100 S6        29.98R
WINCHESTER     CLOUDY    59  57  94 SE8       29.99S
MCMINNVILLE    CLOUDY    63  63 100 VRB7      29.96F
COLUMBIA       CLOUDY   N/A N/A N/A SW10      29.92S
SHELBYVILLE    CLOUDY    63  63 100 S10       29.96F
$$

TNZ017-018-042-046-047-040300-
NORTHEAST TENNESSEE

CITY           SKY/WX    TMP DP  RH WIND       PRES   REMARKS
TRI CITIES     RAIN      46  45  96 CALM      30.03S FOG
ELIZABETHTON   LGT RAIN  48  46  93 CALM      30.02F
$$

TNZ012-013-036-069-073-074-040300-
CENTRAL EAST TENNESSEE

CITY           SKY/WX    TMP DP  RH WIND       PRES   REMARKS
KNOXVILLE      LGT RAIN  48  47  96 SE3       30.00F FOG
OAK RIDGE      CLOUDY    50  49  96 CALM      30.02F
GATLINBURG     CLOUDY    48  46  93 CALM      30.01F
MORRISTOWN     CLOUDY    46  45  93 CALM      30.03S
$$

TNZ083-085-099-040300-
SOUTHEAST TENNESSEE

CITY           SKY/WX    TMP DP  RH WIND       PRES   REMARKS
CHATTANOOGA    CLOUDY    54  53  97 CALM      30.05S FOG
$$

SKY/WX REPORTED AS FAIR MEANS FEW OR NO CLOUDS BELOW
12 THOUSAND FEET.



USA.gov is the U.S. government's official web portal to all federal, state and local government web resources and services.